contact:dominique.lefevre@mio.osupytheas.fr, maurice.libes@osupytheas.fr
Project:EMSO Ligure-ouest http://www.emso-fr.org/EMSO-France
Sensor Aquadopp, line 13 Serial AQD14315 
DOI : "https://doi.org/10.17882/74513; https://doi.org/10.17882/83244" 
Title:EMSO Ligure Ouest : Data ligne ALBATROSS capteur AQUADOPP - deploiement 2021
Id,Date,Profondeur,Latitude,Longitude,X_East,Y_North,Z_Up,Amplitude_X,Amplitude_Y,Amplitude_Z,Batterie,SoundSpeed,Heading,Pitch,Roll,Pressure,Temperature,Speed,Direction
, , m, degrees North, degrees East, m.s-1, m.s-1,m.s-1, 1, 1, 1, Volt, m.s-1, degree, degree, degree, dbar, degree_C, m.s-1, degree
13,2022-03-25T21:30:00,2400.0,42.79,6.0312,-0.031,-0.001,-0.011,63.0,55.0,59.0,12.1,1504.8,328.1,-0.1,-0.4,2394.483,13.33,0.031,268.2
13,2022-03-25T22:00:00,2400.0,42.79,6.0312,-0.003,0.016,0.0,61.0,54.0,60.0,12.0,1504.8,334.7,0.1,-0.5,2394.458,13.33,0.016,349.4
13,2022-03-25T22:30:00,2400.0,42.79,6.0312,-0.004,0.006,0.02,65.0,54.0,57.0,12.1,1504.8,329.7,0.0,-0.5,2394.469,13.33,0.007,326.3
13,2022-03-25T23:00:00,2400.0,42.79,6.0312,-0.019,0.0,-0.029,62.0,56.0,55.0,12.1,1504.8,322.2,0.0,-0.4,2394.466,13.33,0.019,270.0
13,2022-03-25T23:30:00,2400.0,42.79,6.0312,-0.007,-0.001,-0.01,61.0,59.0,55.0,12.0,1504.8,323.3,0.1,-0.5,2394.506,13.33,0.007,261.9
13,2022-03-26T00:00:00,2400.0,42.79,6.0312,0.007,0.019,-0.016,62.0,55.0,56.0,12.1,1504.8,331.4,0.0,-0.5,2394.5,13.33,0.02,20.2
13,2022-03-26T00:30:00,2400.0,42.79,6.0312,0.012,0.008,-0.045,61.0,57.0,56.0,12.1,1504.8,334.5,0.0,-0.5,2394.558,13.33,0.014,56.3
13,2022-03-26T01:00:00,2400.0,42.79,6.0312,0.043,-0.002,-0.011,61.0,56.0,61.0,12.0,1504.8,325.6,0.0,-0.5,2394.558,13.33,0.043,92.7
13,2022-03-26T01:30:00,2400.0,42.79,6.0312,0.013,0.0,-0.001,62.0,52.0,57.0,12.1,1504.8,329.4,0.0,-0.4,2394.568,13.33,0.013,90.0
13,2022-03-26T02:00:00,2400.0,42.79,6.0312,0.032,0.005,-0.027,62.0,51.0,56.0,12.1,1504.8,322.3,0.1,-0.4,2394.58,13.33,0.032,81.1
13,2022-03-26T02:30:00,2400.0,42.79,6.0312,0.024,0.012,0.013,62.0,57.0,58.0,12.0,1504.8,327.2,0.1,-0.4,2394.547,13.33,0.026,63.4
13,2022-03-26T03:00:00,2400.0,42.79,6.0312,0.037,0.005,-0.003,62.0,57.0,56.0,12.1,1504.8,285.0,-0.1,-0.4,2394.563,13.33,0.037,82.3
13,2022-03-26T03:30:00,2400.0,42.79,6.0312,0.063,-0.024,-0.024,60.0,55.0,56.0,12.1,1504.8,308.8,-0.2,-0.5,2394.598,13.33,0.067,110.9
13,2022-03-26T04:00:00,2400.0,42.79,6.0312,0.037,0.005,0.007,64.0,55.0,60.0,12.1,1504.8,276.3,-0.1,-0.4,2394.582,13.33,0.037,82.3
13,2022-03-26T04:30:00,2400.0,42.79,6.0312,0.047,-0.003,-0.005,63.0,56.0,58.0,12.1,1504.8,285.3,0.0,-0.5,2394.589,13.33,0.047,93.6
13,2022-03-26T05:00:00,2400.0,42.79,6.0312,0.031,-0.012,-0.006,60.0,58.0,56.0,12.0,1504.8,323.9,0.0,-0.5,2394.595,13.33,0.033,111.2
13,2022-03-26T05:30:00,2400.0,42.79,6.0312,0.023,-0.014,0.007,60.0,54.0,58.0,12.0,1504.8,283.8,0.0,-0.4,2394.549,13.33,0.026,121.3
13,2022-03-26T06:00:00,2400.0,42.79,6.0312,0.034,-0.008,0.032,61.0,55.0,57.0,12.1,1504.8,304.7,0.1,-0.3,2394.53,13.33,0.034,103.2
13,2022-03-26T06:30:00,2400.0,42.79,6.0312,0.037,0.004,0.014,64.0,55.0,58.0,12.0,1504.8,288.1,0.0,-0.4,2394.528,13.33,0.037,83.8
13,2022-03-26T07:00:00,2400.0,42.79,6.0312,0.014,-0.035,0.009,65.0,56.0,58.0,12.0,1504.8,337.6,0.0,-0.4,2394.514,13.33,0.037,158.2
13,2022-03-26T07:30:00,2400.0,42.79,6.0312,0.027,-0.032,0.0,63.0,58.0,57.0,12.0,1504.8,301.6,-0.1,-0.4,2394.523,13.33,0.041,139.8
13,2022-03-26T08:00:00,2400.0,42.79,6.0312,0.048,-0.007,0.014,61.0,55.0,60.0,12.0,1504.8,322.1,0.0,-0.5,2394.469,13.33,0.048,98.3
13,2022-03-26T08:30:00,2400.0,42.79,6.0312,0.028,-0.021,-0.015,64.0,55.0,58.0,12.0,1504.8,7.7,0.1,-0.4,2394.541,13.33,0.035,126.9
13,2022-03-26T09:00:00,2400.0,42.79,6.0312,0.032,-0.026,-0.006,62.0,56.0,57.0,12.0,1504.8,17.5,0.1,-0.4,2394.499,13.33,0.041,129.1
13,2022-03-26T09:30:00,2400.0,42.79,6.0312,0.01,-0.042,-0.003,59.0,55.0,56.0,12.1,1504.8,352.2,0.1,-0.3,2394.473,13.33,0.043,166.6
13,2022-03-26T10:00:00,2400.0,42.79,6.0312,0.043,-0.026,-0.023,62.0,54.0,55.0,12.0,1504.8,334.5,0.1,-0.4,2394.475,13.33,0.05,121.2
13,2022-03-26T10:30:00,2400.0,42.79,6.0312,0.024,-0.057,-0.018,63.0,55.0,56.0,12.0,1504.8,357.6,0.0,-0.4,2394.492,13.33,0.061,157.2
13,2022-03-26T11:00:00,2400.0,42.79,6.0312,0.039,-0.02,-0.035,64.0,56.0,61.0,12.0,1504.8,27.3,0.2,-0.4,2394.496,13.33,0.043,117.1
13,2022-03-26T11:30:00,2400.0,42.79,6.0312,0.015,-0.028,0.013,68.0,57.0,59.0,12.0,1504.8,86.8,0.0,-0.4,2394.524,13.33,0.031,151.8
13,2022-03-26T12:00:00,2400.0,42.79,6.0312,0.033,-0.031,0.007,63.0,56.0,62.0,12.0,1504.8,73.5,0.1,-0.4,2394.552,13.33,0.045,133.2
13,2022-03-26T12:30:00,2400.0,42.79,6.0312,0.021,-0.009,0.006,62.0,55.0,58.0,12.1,1504.8,86.9,0.0,-0.4,2394.504,13.33,0.022,113.2
13,2022-03-26T13:00:00,2400.0,42.79,6.0312,0.038,-0.025,-0.014,61.0,57.0,57.0,12.1,1504.8,73.7,0.2,-0.4,2394.527,13.33,0.045,123.3
13,2022-03-26T13:30:00,2400.0,42.79,6.0312,0.016,-0.028,-0.036,65.0,55.0,57.0,12.1,1504.8,95.4,0.0,-0.2,2394.546,13.33,0.032,150.3
13,2022-03-26T14:00:00,2400.0,42.79,6.0312,0.016,-0.015,-0.02,61.0,55.0,58.0,12.0,1504.8,78.8,0.1,-0.3,2394.457,13.33,0.021,133.1
13,2022-03-26T14:30:00,2400.0,42.79,6.0312,-0.01,-0.029,-0.004,63.0,53.0,59.0,12.0,1504.8,79.5,0.3,-0.4,2394.523,13.33,0.03,199.0
13,2022-03-26T15:00:00,2400.0,42.79,6.0312,0.015,-0.018,-0.003,61.0,56.0,56.0,12.0,1504.8,105.7,-0.1,-0.3,2394.51,13.33,0.023,140.2
13,2022-03-26T15:30:00,2400.0,42.79,6.0312,0.016,-0.027,-0.009,60.0,58.0,54.0,12.1,1504.8,75.3,0.0,-0.3,2394.494,13.33,0.031,149.3
13,2022-03-26T16:00:00,2400.0,42.79,6.0312,0.037,-0.026,-0.03,60.0,57.0,56.0,12.0,1504.8,78.2,0.0,-0.3,2394.514,13.33,0.045,125.1
13,2022-03-26T16:30:00,2400.0,42.79,6.0312,0.001,-0.02,-0.004,64.0,60.0,58.0,12.0,1504.8,82.6,0.1,-0.4,2394.493,13.33,0.02,177.1
13,2022-03-26T17:00:00,2400.0,42.79,6.0312,-0.006,-0.011,-0.009,63.0,53.0,58.0,12.0,1504.8,81.7,0.1,-0.3,2394.488,13.33,0.012,208.6
13,2022-03-26T17:30:00,2400.0,42.79,6.0312,0.017,0.006,-0.002,62.0,59.0,61.0,12.1,1504.8,91.7,0.1,-0.3,2394.498,13.33,0.018,70.6
13,2022-03-26T18:00:00,2400.0,42.79,6.0312,0.006,-0.022,0.003,61.0,59.0,62.0,12.0,1504.8,81.3,0.0,-0.4,2394.481,13.33,0.022,164.7
13,2022-03-26T18:30:00,2400.0,42.79,6.0312,0.016,-0.003,-0.017,65.0,60.0,57.0,12.0,1504.8,81.2,0.0,-0.3,2394.461,13.33,0.016,100.6
13,2022-03-26T19:00:00,2400.0,42.79,6.0312,0.012,0.0,-0.006,61.0,56.0,56.0,12.0,1504.8,75.3,0.1,-0.3,2394.457,13.33,0.012,90.0
13,2022-03-26T19:30:00,2400.0,42.79,6.0312,0.001,0.0,-0.038,61.0,56.0,56.0,12.0,1504.8,76.2,0.1,-0.4,2394.482,13.33,0.001,90.0
13,2022-03-26T20:00:00,2400.0,42.79,6.0312,0.023,0.004,-0.008,64.0,56.0,56.0,12.0,1504.8,73.7,0.0,-0.2,2394.457,13.33,0.023,80.1
13,2022-03-26T20:30:00,2400.0,42.79,6.0312,0.034,0.008,0.011,62.0,55.0,62.0,12.0,1504.8,70.2,0.2,-0.4,2394.498,13.33,0.034,76.8
13,2022-03-26T21:00:00,2400.0,42.79,6.0312,0.039,0.016,-0.013,63.0,56.0,58.0,12.0,1504.8,53.2,0.0,-0.3,2394.509,13.33,0.042,67.7
